Bournemouth, United Kingdom

5:06 AM BST on August 21, 2017 (GMT +0100)
Bournemouth

Weather History for EGHH - January, 2014

Change the Weather History Date:

Tuesday, January 7, 2014

  Actual Average Record
Temperature  
Mean Temperature 51 °F -  
Max Temperature 54 °F 46 °F 55 °F (2005)
Min Temperature 48 °F 34 °F 14 °F (2009)
Degree Days  
Heating Degree Days 14    
Growing Degree Days 1 (Base 50)    
Moisture  
Dew Point 47 °F    
Average Humidity 82    
Maximum Humidity 93    
Minimum Humidity 68    
Precipitation  
Precipitation 0.16 in 0.11 in - ()
Sea Level Pressure  
Sea Level Pressure 29.64 in    
Wind  
Wind Speed 18 mph ()    
Max Wind Speed 29 mph    
Max Gust Speed 41 mph    
Visibility 5.8 miles    
Events Rain    
Averages and records for this station are not official NWS values.
T = Trace of Precipitation, MM = Missing Value Source: Averaged Metar Reports

Daily Weather History Graph

Daily Weather History Graph

Search for Another Location

Airport or City:

Trip Planner

Search our weather history database for the weather conditions in past years. The results will help you decide how hot, cold, wet, or windy it might be!

Date:

Astronomy

Jan. 07, 2014 Rise Set
Actual Time 8:08 AM GMT 4:19 PM GMT
Civil Twilight 7:29 AM GMT 4:58 PM GMT
Nautical Twilight 6:47 AM GMT 5:39 PM GMT
Astronomical Twilight 6:07 AM GMT 6:19 PM GMT
Moon 11:01 AM GMT (1/7) No Moon Set
Length of Visible Light 9h 28m
Length of Day
8h 11m
Waxing Crescent, 43% of the Moon is Illuminated
Jan 7
Waxing Crescent
Jan 8
First Quarter
Jan 16
Full
Jan 24
Last Quarter
Jan 30
New

Hourly Weather History & Observations

Time (GMT) Temp. Dew Point Humidity Pressure Visibility Wind Dir Wind Speed Gust Speed Precip Events Conditions
12:00 AM 52 °F 47 °F 76% 29.52 in 5 mi SW 19.6 mph - -   Light Haze
1:00 AM 51 °F 47 °F 80% 29.53 in 6 mi SW 19.6 mph - -   Light Haze
1:20 AM 50.0 °F 42.8 °F 76% 29.53 in 6.2 mi SW 24.2 mph 41.4 mph N/A   Partly Cloudy
1:50 AM 51.8 °F 46.4 °F 82% 29.53 in 6.2 mi SW 21.9 mph 34.5 mph N/A   Partly Cloudy
2:00 AM 51 °F 46 °F 76% 29.54 in 6 mi SW 21.9 mph - - Rain Rain
2:20 AM 50.0 °F 46.4 °F 87% 29.53 in 6.2 mi SW 21.9 mph 34.5 mph N/A   Mostly Cloudy
2:50 AM 51.8 °F 48.2 °F 88% 29.53 in 5.6 mi SSW 20.7 mph - N/A   Scattered Clouds
3:00 AM 51 °F 47 °F 83% 29.55 in 6 mi SSW 20.7 mph - - Rain Rain
3:20 AM 51.8 °F 48.2 °F 88% 29.53 in 4.3 mi SSW 20.7 mph 33.4 mph N/A Rain Light Rain Showers
4:00 AM 52 °F 47 °F 78% 29.55 in 5 mi SW 19.6 mph - - Rain Rain
4:50 AM 51.8 °F 48.2 °F 88% 29.53 in 4.3 mi SSW 18.4 mph 29.9 mph N/A Rain Light Rain Showers
5:00 AM 52 °F 47 °F 79% 29.55 in 5 mi SSW 19.6 mph - - Rain Rain
5:20 AM 51.8 °F 46.4 °F 82% 29.53 in 5.6 mi SSW 19.6 mph 34.5 mph N/A   Mostly Cloudy
5:50 AM 51.8 °F 46.4 °F 82% 29.53 in 5.6 mi SW 20.7 mph 32.2 mph N/A   Mostly Cloudy
6:00 AM 52 °F 46 °F 74% 29.55 in 6 mi SW 23.0 mph - - Rain Rain
6:20 AM 51.8 °F 46.4 °F 82% 29.53 in 5.0 mi SSW 20.7 mph 32.2 mph N/A   Mostly Cloudy
6:50 AM 51.8 °F 46.4 °F 82% 29.56 in 5.0 mi SSW 21.9 mph - N/A   Mostly Cloudy
7:00 AM 52 °F 47 °F 76% 29.56 in 6 mi SSW 21.9 mph - -   Light Haze
7:20 AM 51.8 °F 46.4 °F 82% 29.53 in 5.0 mi SSW 19.6 mph 31.1 mph N/A   Mostly Cloudy
7:50 AM 51.8 °F 46.4 °F 82% 29.56 in 3.7 mi SSW 23.0 mph 36.8 mph N/A Rain Rain Showers
8:00 AM 52 °F 47 °F 77% 29.57 in 2 mi SSW 23.0 mph - -   Light Haze
8:20 AM 51.8 °F 48.2 °F 88% 29.56 in 3.7 mi SW 21.9 mph 36.8 mph N/A Rain Rain Showers
8:50 AM 50.0 °F 46.4 °F 87% 29.56 in 5.0 mi SW 21.9 mph 36.8 mph N/A   Scattered Clouds
9:00 AM 51 °F 46 °F 79% 29.59 in 8 mi SW 24.2 mph - - Rain Rain
9:20 AM 50.0 °F 46.4 °F 87% 29.56 in 5.6 mi WSW 28.8 mph 40.3 mph N/A Rain Light Rain
9:50 AM 48.2 °F 46.4 °F 93% 29.62 in 6.2 mi SW 15.0 mph - N/A   Scattered Clouds
10:00 AM 48 °F 45 °F 86% 29.63 in 6 mi SW 15.0 mph - - Rain Rain
10:20 AM 51.8 °F 48.2 °F 88% 29.62 in 6.2 mi SW 17.3 mph - N/A   Scattered Clouds
10:50 AM 51.8 °F 46.4 °F 82% 29.62 in 6.2 mi SW 17.3 mph - N/A   Mostly Cloudy
11:00 AM 51 °F 47 °F 82% 29.64 in 6 mi SW 17.3 mph - - Rain Light Rain Showers
11:20 AM 53.6 °F 48.2 °F 82% 29.62 in 6.2 mi SW 20.7 mph 32.2 mph N/A   Scattered Clouds
11:50 AM 53.6 °F 46.4 °F 77% 29.62 in 6.2 mi SW 20.7 mph 33.4 mph N/A   Scattered Clouds
12:00 PM 53 °F 47 °F 73% 29.65 in 7 mi SW 20.7 mph - - Rain Rain
12:20 PM 53.6 °F 46.4 °F 77% 29.65 in 6.2 mi SW 21.9 mph 33.4 mph N/A   Scattered Clouds
12:50 PM 53.6 °F 46.4 °F 77% 29.65 in 6.2 mi SW 24.2 mph 36.8 mph N/A   Scattered Clouds
1:00 PM 54 °F 47 °F 68% 29.65 in 7 mi SW 24.2 mph - -   Scattered Clouds
1:20 PM 53.6 °F 46.4 °F 77% 29.65 in 6.2 mi SW 19.6 mph 31.1 mph N/A   Mostly Cloudy
1:50 PM 53.6 °F 46.4 °F 77% 29.65 in 6.2 mi SW 20.7 mph 32.2 mph N/A   Mostly Cloudy
2:00 PM 53 °F 46 °F 71% 29.67 in 6 mi SW 20.7 mph - -   Partly Cloudy
2:20 PM 53.6 °F 46.4 °F 77% 29.65 in 6.2 mi SW 21.9 mph 33.4 mph N/A   Scattered Clouds
2:50 PM 51.8 °F 46.4 °F 82% 29.65 in 6.2 mi SW 21.9 mph 34.5 mph N/A   Scattered Clouds
3:00 PM 53 °F 47 °F 72% 29.67 in 6 mi SW 21.9 mph - -   Scattered Clouds
3:20 PM 51.8 °F 46.4 °F 82% 29.68 in 6.2 mi SW 20.7 mph - N/A   Scattered Clouds
3:50 PM 51.8 °F 46.4 °F 82% 29.68 in 5.6 mi WSW 17.3 mph 28.8 mph N/A   Partly Cloudy
4:00 PM 52 °F 46 °F 74% 29.69 in 6 mi WSW 18.4 mph - - Rain Rain
4:20 PM 51.8 °F 46.4 °F 82% 29.68 in 5.6 mi SW 18.4 mph 35.7 mph N/A   Partly Cloudy
4:50 PM 51.8 °F 48.2 °F 88% 29.68 in 5.0 mi SW 15.0 mph - N/A   Scattered Clouds
5:00 PM 52 °F 47 °F 79% 29.70 in 5 mi SW 15.0 mph - -   Light Haze
5:20 PM 51.8 °F 48.2 °F 88% 29.68 in 5.6 mi SW 16.1 mph - N/A   Scattered Clouds
5:50 PM 51.8 °F 46.4 °F 82% 29.71 in 5.6 mi SW 13.8 mph - N/A   Mostly Cloudy
6:00 PM 51 °F 47 °F 81% 29.71 in 6 mi SW 12.7 mph - -   Light Haze
6:20 PM 51.8 °F 46.4 °F 82% 29.71 in 6.2 mi SW 16.1 mph - N/A   Partly Cloudy
6:50 PM 51.8 °F 46.4 °F 82% 29.71 in 6.2 mi SW 11.5 mph - N/A   Partly Cloudy
7:00 PM 52 °F 47 °F 76% 29.73 in 6 mi SW 11.5 mph - -   Scattered Clouds
7:20 PM 51.8 °F 48.2 °F 88% 29.71 in 5.6 mi SW 12.7 mph - N/A   Partly Cloudy
7:50 PM 51.8 °F 48.2 °F 88% 29.74 in 5.6 mi SSW 13.8 mph - N/A   Mostly Cloudy
8:00 PM 52 °F 48 °F 82% 29.74 in 6 mi SSW 13.8 mph - -   Light Haze
8:20 PM 51.8 °F 48.2 °F 88% 29.74 in 5.0 mi SW 11.5 mph - N/A Rain Light Rain
8:50 PM 48.2 °F 44.6 °F 87% 29.74 in 3.7 mi West 12.7 mph - N/A Rain Rain Showers
9:00 PM 48 °F 44 °F 83% 29.76 in 7 mi West 11.5 mph - - Rain Rain Showers
9:20 PM 48.2 °F 44.6 °F 87% 29.74 in 6.2 mi West 12.7 mph - N/A Rain Light Rain Showers
9:50 PM 48.2 °F 46.4 °F 93% 29.74 in 6.2 mi WSW 12.7 mph - N/A Rain Light Rain Showers
10:00 PM 49 °F 46 °F 83% 29.77 in 9 mi WSW 13.8 mph - - Rain Rain
10:20 PM 50.0 °F 46.4 °F 87% 29.77 in 6.2 mi WSW 11.5 mph - N/A   Mostly Cloudy
10:50 PM 50.0 °F 46.4 °F 87% 29.77 in 6.2 mi SW 11.5 mph - N/A   Mostly Cloudy
11:00 PM 49 °F 45 °F 79% 29.80 in 10 mi SW 12.7 mph - - Rain Rain
11:20 PM 48.2 °F 44.6 °F 87% 29.80 in 6.2 mi SW 11.5 mph - N/A   Partly Cloudy